Previsão horária em Barnislawice

Hoje, 23 Julho, Sexta-feira

Tempo Temperatura Precipitação Vento Pressão Humidade
00:00 +14°C° 0 mm 1 m/s 760 mmHg 86%
01:00 +14°C° 0 mm 1 m/s 759 mmHg 88%
02:00 +13°C° 0 mm 1 m/s 759 mmHg 89%
03:00 +13°C° 0 mm 1 m/s 759 mmHg 89%
04:00 +13°C° 0 mm 1 m/s 759 mmHg 90%
05:00 +15°C° 0 mm 1 m/s 759 mmHg 84%
06:00 +18°C° 0 mm 1 m/s 759 mmHg 79%
07:00 +18°C° 0 mm 2 m/s 759 mmHg 73%
08:00 +19°C° 0 mm 2 m/s 759 mmHg 67%
09:00 +21°C° 0 mm 2 m/s 759 mmHg 61%
10:00 +23°C° 0 mm 2 m/s 759 mmHg 55%
11:00 +24°C° 0 mm 2 m/s 759 mmHg 52%
12:00 +24°C° 0 mm 3 m/s 759 mmHg 49%
13:00 +25°C° 0 mm 3 m/s 758 mmHg 46%
14:00 +25°C° 0 mm 3 m/s 758 mmHg 46%
15:00 +25°C° 0 mm 3 m/s 758 mmHg 46%
16:00 +25°C° 0 mm 3 m/s 758 mmHg 47%
17:00 +24°C° 0 mm 3 m/s 758 mmHg 53%
18:00 +22°C° 0 mm 3 m/s 758 mmHg 59%
19:00 +20°C° 0 mm 3 m/s 758 mmHg 65%
20:00 +19°C° 0 mm 2 m/s 758 mmHg 70%
21:00 +17°C° 0 mm 2 m/s 758 mmHg 76%
22:00 +16°C° 0 mm 2 m/s 758 mmHg 82%
23:00 +15°C° 0 mm 2 m/s 758 mmHg 83%

Amanhã, 24 Julho, Sábado

Tempo Temperatura Precipitação Vento Pressão Humidade
00:00 +15°C° 0 mm 2 m/s 758 mmHg 84%
01:00 +15°C° 0 mm 2 m/s 758 mmHg 85%
02:00 +15°C° 0 mm 2 m/s 758 mmHg 85%
03:00 +15°C° 0 mm 2 m/s 758 mmHg 86%
04:00 +15°C° 0 mm 2 m/s 757 mmHg 87%
05:00 +17°C° 0 mm 2 m/s 757 mmHg 80%
06:00 +19°C° 0 mm 3 m/s 758 mmHg 73%
07:00 +21°C° 0 mm 3 m/s 758 mmHg 66%
08:00 +22°C° 0 mm 3 m/s 757 mmHg 60%
09:00 +25°C° 0 mm 3 m/s 757 mmHg 53%
10:00 +26°C° 0 mm 3 m/s 757 mmHg 47%
11:00 +27°C° 0 mm 3 m/s 757 mmHg 44%
12:00 +28°C° 0 mm 3 m/s 757 mmHg 41%
13:00 +29°C° 0 mm 3 m/s 757 mmHg 39%
14:00 +28°C° 0 mm 3 m/s 757 mmHg 43%
15:00 +27°C° 0 mm 3 m/s 757 mmHg 47%
16:00 +26°C° 0 mm 3 m/s 756 mmHg 52%
17:00 +26°C° 0 mm 4 m/s 756 mmHg 54%
18:00 +25°C° 0 mm 4 m/s 756 mmHg 57%
19:00 +23°C° 0 mm 4 m/s 756 mmHg 59%
20:00 +22°C° 0 mm 4 m/s 756 mmHg 61%
21:00 +21°C° 0 mm 4 m/s 756 mmHg 64%
22:00 +20°C° 0 mm 3 m/s 756 mmHg 66%
23:00 +20°C° 0 mm 4 m/s 756 mmHg 66%

Depois de amanhã, 25 Julho, Domingo

Tempo Temperatura Precipitação Vento Pressão Humidade
00:00 +19°C° 0 mm 4 m/s 756 mmHg 67%
01:00 +19°C° 0 mm 4 m/s 756 mmHg 67%
02:00 +19°C° 0 mm 4 m/s 756 mmHg 69%
03:00 +18°C° 0 mm 4 m/s 756 mmHg 71%
04:00 +18°C° 0 mm 4 m/s 756 mmHg 73%
05:00 +19°C° 0 mm 4 m/s 756 mmHg 69%
06:00 +21°C° 0 mm 4 m/s 756 mmHg 64%
07:00 +22°C° 0 mm 5 m/s 756 mmHg 60%
08:00 +25°C° 0 mm 5 m/s 756 mmHg 54%
09:00 +27°C° 0 mm 5 m/s 756 mmHg 48%
10:00 +28°C° 0 mm 5 m/s 756 mmHg 41%
11:00 +29°C° 0 mm 4 m/s 755 mmHg 40%
12:00 +30°C° 0 mm 4 m/s 755 mmHg 38%
13:00 +31°C° 0 mm 3 m/s 755 mmHg 36%
14:00 +31°C° 0 mm 3 m/s 755 mmHg 37%
15:00 +31°C° 0 mm 3 m/s 755 mmHg 39%
16:00 +31°C° 0 mm 3 m/s 755 mmHg 40%
17:00 +28°C° 0.7 mm 3 m/s 755 mmHg 57%
18:00 +24°C° 0.7 mm 3 m/s 755 mmHg 74%
19:00 +20°C° 0.7 mm 4 m/s 755 mmHg 91%
20:00 +20°C° 0.6 mm 3 m/s 755 mmHg 92%
21:00 +20°C° 0.6 mm 3 m/s 755 mmHg 94%
22:00 +19°C° 0.6 mm 2 m/s 756 mmHg 95%
23:00 +19°C° 0 mm 3 m/s 756 mmHg 95%

26 Julho, Segunda-feira

Tempo Temperatura Precipitação Vento Pressão Humidade
00:00 +19°C° 0 mm 3 m/s 755 mmHg 96%
01:00 +19°C° 0 mm 3 m/s 755 mmHg 96%
02:00 +18°C° 0 mm 3 m/s 755 mmHg 96%
03:00 +18°C° 0 mm 3 m/s 755 mmHg 95%
04:00 +17°C° 0 mm 3 m/s 755 mmHg 95%
05:00 +18°C° 0 mm 3 m/s 755 mmHg 91%
06:00 +19°C° 0 mm 3 m/s 755 mmHg 88%
07:00 +20°C° 0 mm 4 m/s 755 mmHg 85%
08:00 +22°C° 0 mm 3 m/s 755 mmHg 77%
09:00 +25°C° 0 mm 3 m/s 755 mmHg 68%
10:00 +27°C° 0 mm 2 m/s 755 mmHg 60%
11:00 +28°C° 0 mm 2 m/s 755 mmHg 56%
12:00 +29°C° 0 mm 2 m/s 755 mmHg 53%
13:00 +30°C° 0 mm 2 m/s 754 mmHg 49%
14:00 +30°C° 0 mm 2 m/s 754 mmHg 48%
15:00 +30°C° 0 mm 2 m/s 754 mmHg 48%
16:00 +30°C° 0 mm 2 m/s 754 mmHg 47%
17:00 +29°C° 0.6 mm 3 m/s 754 mmHg 56%
18:00 +27°C° 0.6 mm 3 m/s 753 mmHg 65%
19:00 +25°C° 0.6 mm 3 m/s 753 mmHg 74%
20:00 +22°C° 2.9 mm 3 m/s 754 mmHg 79%
21:00 +20°C° 2.9 mm 3 m/s 754 mmHg 85%
22:00 +19°C° 2.9 mm 3 m/s 754 mmHg 90%
23:00 +19°C° 0 mm 3 m/s 754 mmHg 90%

27 Julho, Terça-feira

Tempo Temperatura Precipitação Vento Pressão Humidade
00:00 +18°C° 0 mm 3 m/s 754 mmHg 90%
01:00 +18°C° 0 mm 3 m/s 754 mmHg 90%
02:00 +18°C° 0 mm 3 m/s 754 mmHg 91%
03:00 +18°C° 0 mm 3 m/s 754 mmHg 93%
04:00 +18°C° 0 mm 3 m/s 754 mmHg 94%
05:00 +19°C° 0 mm 3 m/s 755 mmHg 90%
06:00 +20°C° 0 mm 3 m/s 755 mmHg 86%
07:00 +21°C° 0 mm 3 m/s 755 mmHg 82%
08:00 +22°C° 0.1 mm 3 m/s 755 mmHg 75%
09:00 +25°C° 0.1 mm 3 m/s 755 mmHg 68%
10:00 +26°C° 0.1 mm 3 m/s 755 mmHg 61%
11:00 +26°C° 0.5 mm 3 m/s 755 mmHg 61%
12:00 +26°C° 0.5 mm 3 m/s 755 mmHg 62%
13:00 +26°C° 0.5 mm 3 m/s 755 mmHg 62%
14:00 +26°C° 0.5 mm 3 m/s 755 mmHg 62%
15:00 +26°C° 0.5 mm 4 m/s 755 mmHg 62%
16:00 +26°C° 0.5 mm 4 m/s 755 mmHg 61%
17:00 +25°C° 0.1 mm 3 m/s 755 mmHg 66%
18:00 +24°C° 0.1 mm 2 m/s 755 mmHg 71%
19:00 +23°C° 0.1 mm 2 m/s 755 mmHg 75%
20:00 +21°C° 0 mm 2 m/s 755 mmHg 78%
21:00 +20°C° 0 mm 2 m/s 755 mmHg 81%
22:00 +19°C° 0 mm 2 m/s 755 mmHg 84%
23:00 +18°C° 0.1 mm 2 m/s 755 mmHg 85%

28 Julho, Quarta-feira

Tempo Temperatura Precipitação Vento Pressão Humidade
00:00 +18°C° 0.1 mm 3 m/s 755 mmHg 86%
01:00 +18°C° 0.1 mm 3 m/s 755 mmHg 87%
02:00 +18°C° 0.1 mm 3 m/s 755 mmHg 88%
03:00 +18°C° 0.1 mm 3 m/s 755 mmHg 90%
04:00 +18°C° 0.1 mm 3 m/s 755 mmHg 91%
05:00 +18°C° 0 mm 3 m/s 755 mmHg 89%
06:00 +19°C° 0 mm 3 m/s 755 mmHg 87%
07:00 +19°C° 0 mm 4 m/s 755 mmHg 84%
08:00 +21°C° 0 mm 4 m/s 755 mmHg 75%
09:00 +23°C° 0 mm 4 m/s 755 mmHg 66%
10:00 +25°C° 0 mm 4 m/s 756 mmHg 57%
11:00 +26°C° 0 mm 5 m/s 755 mmHg 54%
12:00 +27°C° 0 mm 5 m/s 755 mmHg 50%
13:00 +28°C° 0 mm 5 m/s 755 mmHg 46%
14:00 +28°C° 0 mm 5 m/s 755 mmHg 47%
15:00 +27°C° 0 mm 4 m/s 755 mmHg 47%
16:00 +27°C° 0 mm 4 m/s 755 mmHg 47%
17:00 +26°C° 0 mm 4 m/s 755 mmHg 52%
18:00 +25°C° 0 mm 3 m/s 755 mmHg 57%
19:00 +24°C° 0 mm 3 m/s 756 mmHg 62%
20:00 +23°C° 0 mm 2 m/s 756 mmHg 67%
21:00 +20°C° 0 mm 2 m/s 756 mmHg 72%
22:00 +20°C° 0 mm 1 m/s 756 mmHg 77%
23:00 +19°C° 0 mm 2 m/s 756 mmHg 78%
Mostrar mais